Sauk Centre, MN

6:48 PM CDT on October 22, 2019 (GMT -0500)
Sauk Centre

Weather History for KD39 - August, 2019

Change the Weather History Date:

Tuesday, August 6, 2019

  Actual Average (KGHW) Record (KGHW)
Temperature  
Mean Temperature 71 °F -  
Max Temperature 84 °F 82 °F 95 °F (1983)
Min Temperature 59 °F 59 °F 35 °F (2001)
Cooling Degree Days 6    
Growing Degree Days 21 (Base 50)    
Moisture  
Dew Point 60 °F    
Average Humidity 71    
Maximum Humidity 94    
Minimum Humidity 43    
Precipitation  
Precipitation 0.00 in - - ()
Sea Level Pressure  
Sea Level Pressure 29.88 in    
Wind  
Wind Speed 5 mph (West)    
Max Wind Speed 16 mph    
Max Gust Speed 23 mph    
Visibility 10 miles    
Events      
Averages and records for this station are not official NWS values.
T = Trace of Precipitation, MM = Missing Value Source: NWS Daily Summary

Daily Weather History Graph

Daily Weather History Graph

Search for Another Location

Airport or City:

Astronomy

Aug. 06, 2019 Rise Set
Actual Time 6:08 AM CDT 8:41 PM CDT
Civil Twilight 5:35 AM CDT 9:15 PM CDT
Nautical Twilight 4:52 AM CDT 9:57 PM CDT
Astronomical Twilight 4:04 AM CDT 10:45 PM CDT
Moon 12:54 PM CDT (8/6) No Moon Set
Length of Visible Light 15h 40m
Length of Day
14h 33m
Waxing Crescent, 39% of the Moon is Illuminated
Aug 6
Waxing Crescent
Aug 7
First Quarter
Aug 15
Full
Aug 23
Last Quarter
Aug 30
New

Hourly Weather History & Observations

Time (CDT) Temp. Heat Index Dew Point Humidity Pressure Visibility Wind Dir Wind Speed Gust Speed Precip Events Conditions
12:16 AM 63.0 °F - 59.4 °F 88% 29.91 in 10.0 mi WNW 3.5 mph - N/A   Clear
12:35 AM 62.8 °F - 59.4 °F 89% 29.91 in 10.0 mi West 3.5 mph - N/A   Clear
12:56 AM 62.8 °F - 59.9 °F 90% 29.91 in 10.0 mi Calm Calm - N/A   Clear
1:16 AM 62.8 °F - 59.9 °F 90% 29.91 in 10.0 mi West 3.5 mph - N/A   Clear
1:35 AM 62.6 °F - 59.9 °F 91% 29.91 in 10.0 mi Calm Calm - N/A   Clear
1:36 AM 62.6 °F - 59.9 °F 91% 29.91 in 10.0 mi Calm Calm - N/A   Clear
1:55 AM 62.8 °F - 59.9 °F 90% 29.90 in 10.0 mi Calm Calm - N/A   Clear
1:56 AM 62.8 °F - 59.9 °F 90% 29.90 in 10.0 mi Calm Calm - N/A   Clear
2:15 AM 62.8 °F - 59.7 °F 90% 29.91 in 10.0 mi Calm Calm - N/A   Clear
2:35 AM 62.1 °F - 59.2 °F 90% 29.91 in 10.0 mi Calm Calm - N/A   Clear
2:39 AM 61.9 °F - 59.2 °F 91% 29.91 in 10.0 mi Calm Calm - N/A   Clear
2:58 AM 62.6 °F - 59.5 °F 90% 29.91 in 10.0 mi WNW 3.5 mph - N/A   Clear
3:17 AM 62.6 °F - 59.9 °F 91% 29.90 in 10.0 mi Calm Calm - N/A   Clear
3:36 AM 62.2 °F - 59.5 °F 91% 29.90 in 10.0 mi WNW 3.5 mph - N/A   Clear
3:55 AM 61.5 °F - 59.2 °F 92% 29.91 in 10.0 mi WNW 4.6 mph - N/A   Clear
3:56 AM 61.5 °F - 59.0 °F 91% 29.91 in 10.0 mi West 4.6 mph - N/A   Clear
4:15 AM 61.7 °F - 59.2 °F 91% 29.91 in 10.0 mi Calm Calm - N/A   Clear
4:16 AM 61.7 °F - 59.2 °F 91% 29.91 in 10.0 mi WNW 3.5 mph - N/A   Clear
4:35 AM 61.2 °F - 59.0 °F 93% 29.91 in 10.0 mi West 3.5 mph - N/A   Clear
4:36 AM 61.2 °F - 59.0 °F 93% 29.91 in 10.0 mi West 4.6 mph - N/A   Clear
4:55 AM 60.8 °F - 58.3 °F 91% 29.90 in 10.0 mi WNW 3.5 mph - N/A   Clear
4:59 AM 60.3 °F - 58.1 °F 93% 29.90 in 10.0 mi WNW 3.5 mph - N/A   Clear
5:17 AM 60.3 °F - 58.5 °F 94% 29.90 in 10.0 mi WNW 3.5 mph - N/A   Clear
5:36 AM 59.9 °F - 57.7 °F 93% 29.90 in 10.0 mi Calm Calm - N/A   Clear
5:55 AM 59.0 °F - 57.2 °F 94% 29.90 in 10.0 mi West 3.5 mph - N/A   Clear
5:56 AM 59.0 °F - 57.2 °F 94% 29.90 in 10.0 mi West 3.5 mph - N/A   Clear
6:15 AM 59.4 °F - 57.7 °F 94% 29.91 in 10.0 mi Calm Calm - N/A   Clear
6:16 AM 59.4 °F - 57.7 °F 94% 29.91 in 10.0 mi Calm Calm - N/A   Clear
6:35 AM 59.9 °F - 58.1 °F 94% 29.91 in 10.0 mi Calm Calm - N/A   Clear
6:58 AM 60.3 °F - 58.5 °F 94% 29.91 in 10.0 mi West 5.8 mph - N/A   Clear
7:17 AM 60.8 °F - 59.0 °F 94% 29.91 in 10.0 mi Calm Calm - N/A   Clear
7:36 AM 62.4 °F - 59.9 °F 91% 29.91 in 10.0 mi Calm Calm - N/A   Clear
7:55 AM 64.4 °F - 61.0 °F 89% 29.91 in 10.0 mi Calm Calm - N/A   Clear
7:56 AM 64.4 °F - 61.0 °F 89% 29.91 in 10.0 mi Calm Calm - N/A   Clear
8:15 AM 65.8 °F - 61.9 °F 87% 29.91 in 10.0 mi Calm Calm - N/A   Clear
8:20 AM 66.0 °F - 62.1 °F 87% 29.91 in 10.0 mi WNW 3.5 mph - N/A   Clear
8:38 AM 67.6 °F - 62.6 °F 84% 29.91 in 10.0 mi West 9.2 mph - N/A   Clear
8:57 AM 68.4 °F - 62.6 °F 82% 29.92 in 10.0 mi WSW 4.6 mph - N/A   Clear
9:16 AM 70.5 °F - 63.0 °F 77% 29.92 in 10.0 mi West 4.6 mph - N/A   Clear
9:35 AM 72.1 °F - 63.1 °F 73% 29.91 in 10.0 mi West 4.6 mph - N/A   Clear
9:36 AM 72.1 °F - 63.0 °F 73% 29.91 in 10.0 mi West 4.6 mph - N/A   Clear
9:55 AM 73.4 °F - 61.7 °F 67% 29.91 in 10.0 mi West 9.2 mph - N/A   Clear
9:56 AM 73.4 °F - 61.9 °F 67% 29.91 in 10.0 mi West 9.2 mph - N/A   Clear
10:19 AM 74.7 °F - 61.7 °F 64% 29.91 in 10.0 mi West 6.9 mph - N/A   Clear
10:36 AM 76.1 °F - 61.0 °F 59% 29.91 in 10.0 mi West 9.2 mph - N/A   Clear
10:55 AM 77.0 °F - 60.4 °F 56% 29.91 in 10.0 mi West 9.2 mph 18.4 mph N/A   Clear
11:15 AM 77.7 °F - 61.0 °F 56% 29.91 in 10.0 mi West 10.4 mph - N/A   Clear
11:16 AM 77.7 °F - 61.0 °F 56% 29.91 in 10.0 mi WNW 9.2 mph - N/A   Clear
11:35 AM 78.6 °F - 60.4 °F 54% 29.91 in 10.0 mi West 12.7 mph - N/A   Clear
11:36 AM 78.6 °F - 60.4 °F 54% 29.91 in 10.0 mi West 11.5 mph - N/A   Clear
11:58 AM 79.5 °F - 59.7 °F 51% 29.90 in 10.0 mi West 11.5 mph - N/A   Clear
12:17 PM 80.1 °F 80.8 °F 59.2 °F 49% 29.90 in 10.0 mi WNW 12.7 mph 19.6 mph N/A   Clear
12:36 PM 80.2 °F 80.9 °F 59.5 °F 49% 29.89 in 10.0 mi West 12.7 mph 18.4 mph N/A   Clear
12:55 PM 81.0 °F 81.3 °F 58.8 °F 47% 29.89 in 10.0 mi WNW 12.7 mph 16.1 mph N/A   Scattered Clouds
12:56 PM 81.1 °F 81.4 °F 58.8 °F 46% 29.89 in 10.0 mi WNW 13.8 mph - N/A   Scattered Clouds
1:15 PM 81.0 °F 81.2 °F 58.3 °F 46% 29.89 in 10.0 mi West 13.8 mph - N/A   Clear
1:19 PM 81.0 °F 81.1 °F 57.9 °F 45% 29.89 in 10.0 mi West 13.8 mph - N/A   Clear
1:38 PM 81.3 °F 81.6 °F 58.5 °F 46% 29.89 in 10.0 mi WNW 11.5 mph 18.4 mph N/A   Clear
1:56 PM 81.9 °F 82.1 °F 59.2 °F 46% 29.88 in 10.0 mi West 12.7 mph 23.0 mph N/A   Clear
2:15 PM 81.7 °F 81.9 °F 59.0 °F 46% 29.88 in 10.0 mi West 13.8 mph 19.6 mph N/A   Scattered Clouds
2:16 PM 81.9 °F 82.1 °F 59.0 °F 46% 29.88 in 10.0 mi West 15.0 mph 19.6 mph N/A   Scattered Clouds
2:35 PM 82.4 °F 82.5 °F 58.8 °F 45% 29.88 in 10.0 mi West 12.7 mph 20.7 mph N/A   Scattered Clouds
2:55 PM 82.9 °F 83.0 °F 59.5 °F 45% 29.87 in 10.0 mi West 16.1 mph 20.7 mph N/A   Scattered Clouds
2:59 PM 82.8 °F 82.7 °F 58.8 °F 44% 29.88 in 10.0 mi West 11.5 mph 20.7 mph N/A   Scattered Clouds
3:17 PM 82.4 °F 82.3 °F 58.6 °F 44% 29.87 in 10.0 mi West 10.4 mph - N/A   Scattered Clouds
3:35 PM 82.9 °F 83.0 °F 59.4 °F 45% 29.86 in 10.0 mi West 13.8 mph 17.3 mph N/A   Scattered Clouds
3:55 PM 83.1 °F 83.0 °F 59.2 °F 44% 29.86 in 10.0 mi West 10.4 mph - N/A   Scattered Clouds
3:56 PM 83.1 °F 83.0 °F 59.2 °F 44% 29.86 in 10.0 mi West 9.2 mph - N/A   Scattered Clouds
4:15 PM 83.5 °F 83.6 °F 60.1 °F 45% 29.86 in 10.0 mi West 11.5 mph - N/A   Scattered Clouds
4:16 PM 83.3 °F 83.4 °F 59.7 °F 45% 29.86 in 10.0 mi West 11.5 mph - N/A   Scattered Clouds
4:35 PM 82.0 °F 82.1 °F 59.0 °F 45% 29.86 in 10.0 mi West 9.2 mph - N/A   Scattered Clouds
4:40 PM 82.9 °F 83.0 °F 59.4 °F 45% 29.85 in 10.0 mi West 10.4 mph - N/A   Scattered Clouds
4:57 PM 82.0 °F 82.2 °F 59.2 °F 46% 29.85 in 10.0 mi WNW 9.2 mph - N/A   Scattered Clouds
5:16 PM 82.9 °F 82.7 °F 58.5 °F 43% 29.84 in 10.0 mi WNW 8.1 mph - N/A   Scattered Clouds
5:35 PM 82.6 °F 82.6 °F 59.0 °F 45% 29.83 in 10.0 mi West 5.8 mph - N/A   Scattered Clouds
5:36 PM 82.6 °F 82.6 °F 59.2 °F 45% 29.83 in 10.0 mi West 6.9 mph - N/A   Scattered Clouds
5:55 PM 82.4 °F 82.5 °F 59.4 °F 45% 29.83 in 10.0 mi WSW 4.6 mph - N/A   Scattered Clouds
5:56 PM 82.4 °F 82.6 °F 59.5 °F 46% 29.83 in 10.0 mi West 4.6 mph - N/A   Scattered Clouds
6:15 PM 81.9 °F 82.2 °F 59.5 °F 47% 29.84 in 10.0 mi West 9.2 mph - N/A   Clear
6:38 PM 81.1 °F 81.8 °F 60.4 °F 49% 29.83 in 10.0 mi WSW 8.1 mph - N/A   Clear
6:56 PM 79.5 °F - 61.7 °F 54% 29.82 in 10.0 mi WSW 3.5 mph - N/A   Clear
7:15 PM 78.6 °F - 62.6 °F 58% 29.81 in 10.0 mi WSW 3.5 mph - N/A   Clear
7:16 PM 78.4 °F - 62.6 °F 58% 29.81 in 10.0 mi WSW 3.5 mph - N/A   Clear
7:35 PM 77.2 °F - 62.2 °F 60% 29.82 in 10.0 mi WSW 4.6 mph - N/A   Clear
7:36 PM 77.0 °F - 62.2 °F 60% 29.82 in 10.0 mi WSW 4.6 mph - N/A   Clear
7:55 PM 75.0 °F - 63.5 °F 67% 29.82 in 10.0 mi WSW 3.5 mph - N/A   Clear
7:56 PM 74.8 °F - 63.5 °F 68% 29.82 in 10.0 mi WSW 3.5 mph - N/A   Clear
8:19 PM 72.9 °F - 64.4 °F 75% 29.82 in 10.0 mi SW 3.5 mph - N/A   Clear
8:38 PM 72.5 °F - 63.9 °F 74% 29.82 in 10.0 mi SW 3.5 mph - N/A   Clear
8:55 PM 70.7 °F - 64.4 °F 80% 29.82 in 10.0 mi Calm Calm - N/A   Clear
9:16 PM 69.4 °F - 63.7 °F 82% 29.82 in 10.0 mi SSE 4.6 mph - N/A   Clear
9:35 PM 67.1 °F - 63.7 °F 89% 29.83 in 10.0 mi South 3.5 mph - N/A   Clear
9:36 PM 67.1 °F - 63.7 °F 89% 29.83 in 10.0 mi South 3.5 mph - N/A   Clear
9:58 PM 68.0 °F - 63.5 °F 85% 29.83 in 10.0 mi SSW 3.5 mph - N/A   Clear
10:18 PM 67.8 °F - 63.1 °F 85% 29.82 in 10.0 mi SSE 3.5 mph - N/A   Clear
10:36 PM 67.1 °F - 62.8 °F 86% 29.82 in 10.0 mi SSE 4.6 mph - N/A   Clear
10:55 PM 67.6 °F - 62.8 °F 84% 29.81 in 10.0 mi SSE 5.8 mph - N/A   Clear
10:56 PM 67.5 °F - 62.8 °F 85% 29.81 in 10.0 mi SSE 5.8 mph - N/A   Clear
11:15 PM 66.4 °F - 62.8 °F 88% 29.79 in 10.0 mi SE 3.5 mph - N/A   Clear
11:16 PM 66.6 °F - 62.8 °F 88% 29.79 in 10.0 mi SE 3.5 mph - N/A   Clear
11:39 PM 66.2 °F - 62.2 °F 87% 29.79 in 10.0 mi SSE 4.6 mph - N/A   Clear
11:57 PM 66.6 °F - 62.2 °F 86% 29.79 in 10.0 mi Calm Calm - N/A   Clear